Skip Page Navigation
NASA JPL Caltech
NASA Logo - Jet Propulsion Laboratory + View the NASA Portal
+ Center for Near-Earth Object Studies
JPL Home Earth Solar System Stars & Galaxies Technology
JPL Solar System Dynamics
BODIES ORBITS EPHEMERIDES TOOLS PHYSICAL DATA DISCOVERY FAQ SITE MAP
IMPORTANT: The SSD Announcement email list is now available. Major changes are coming in the near future, including possible hostname and/or URL changes. To be notified of such changes, subscribe to this email list.

Please visit this page for more details.


JPL Small-Body Database Browser
Search: [ help ]  
34631 (2000 UY107)
Classification: Main-belt Asteroid          SPK-ID: 2034631
Ephemeris | Orbit Diagram | Orbital Elements | Mission Design | Physical Parameters | Discovery Circumstances | Close-Approach Data ]

[ show orbit diagram ]
Orbital Elements at Epoch 2458600.5 (2019-Apr-27.0) TDB
Reference: JPL 20 (heliocentric ecliptic J2000)
 Element Value Uncertainty (1-sigma)   Units 
e .1805997049538115 3.5425e-08  
a 3.13091314625151 1.954e-08 au
q 2.565471155802477 1.0827e-07 au
i 10.20131574483956 4.1541e-06 deg
node 104.3632404644016 2.4477e-05 deg
peri 18.14450715390833 2.7652e-05 deg
M 69.30789746186925 1.452e-05 deg
tp 2458210.930291373751
(2018-Apr-02.43029137)
7.9798e-05 TDB
period 2023.508146133095
5.54
1.8943e-05
5.186e-08
d
yr
n .1779088464199942 1.6655e-09 deg/d
Q 3.696355136700542 2.3069e-08 au
  Orbit Determination Parameters
   # obs. used (total)      1305  
   data-arc span      12552 days (34.37 yr)  
   first obs. used      1984-12-28  
   last obs. used      2019-05-11  
   planetary ephem.      DE431  
   SB-pert. ephem.      SB431-N16  
   condition code      0  
   norm. resid. RMS      .5574  
   source      ORB  
   producer      Otto Matic  
   solution date      2019-May-30 03:52:07  

Additional Information
 Earth MOID = 1.58395 au 
 Jupiter MOID = 1.42277 au 
 T_jup = 3.164 
[ show covariance matrix ]

Ephemeris | Orbit Diagram | Orbital Elements | Mission Design | Physical Parameters | Discovery Circumstances | Close-Approach Data ]

Physical Parameter Table
Parameter Symbol Value Units Sigma Reference Notes
absolute magnitude H 13.3   n/a MPO309422  
diameter diameter 14.777 km 0.498 urn:nasa:pds:neowise_diameters_albedos::2.0[mainbelt] (http://adsabs.harvard.edu/abs/2011ApJ...741...68M)  
geometric albedo albedo 0.061   0.008 urn:nasa:pds:neowise_diameters_albedos::2.0[mainbelt] (http://adsabs.harvard.edu/abs/2011ApJ...741...68M)  

34631 (2000 UY107)          Discovered 2000-Oct-30 by LINEAR at Socorro
Reference: 20020128/Numbers.arcLast Updated: 2004-04-19

[ show close-approach data ]
Alternate Designations
 2000 UY107 = 1984 YF5 
Ephemeris | Orbit Diagram | Orbital Elements | Mission Design | Physical Parameters | Discovery Circumstances | Close-Approach Data ]
ABOUT SSD CREDITS/AWARDS PRIVACY/COPYRIGHT GLOSSARY LINKS
FirstGov 2019-Oct-17 14:24 UT
(server date/time)  
NASA Home Page
Site Manager:   Ryan S. Park
Webmaster  Alan B. Chamberlin